Home > Products > Valid Products > RWR

000
ASUS45 KCYS 252010
RWRWY

WYOMING REGIONAL WEATHER ROUNDUP
NATIONAL WEATHER SERVICE CHEYENNE WY
200 PM MDT WED MAY 25 2016

NOTE:  "FAIR" INDICATES FEW OR NO CLOUDS BELOW 12,000 FEET
WITH NO SIGNIFICANT WEATHER AND/OR OBSTRUCTIONS TO VISIBILITY.

WYZ001-252100-
YELLOWSTONE NATIONAL PARK

CITY           SKY/WX    TMP DP  RH WIND       PRES   REMARKS
LK YELLOWSTONE   N/A     44  36  73 MISG      30.06S
W YELLOWSTONE  NOT AVBL

$$
WYZ002>013-054>058-071-098>099-252100-
NORTHERN WYOMING

CITY           SKY/WX    TMP DP  RH WIND       PRES   REMARKS
JACKSON        PTSUNNY   48  39  71 SW6       30.03S
CODY           FAIR      55  41  58 N5        29.93S
GREYBULL       NOT AVBL
WORLAND        CLOUDY    54  47  77 E9        29.90F
SHERIDAN       PTSUNNY   56  49  77 W10       29.94S
BUFFALO          N/A     55  40  56 CALM      29.95S
GILLETTE       FAIR      60  42  51 VRB5      29.92F
HULETT         FAIR      59  43  55 SW5       29.93F
NEWCASTLE      FAIR      63  37  39 NW14G23   29.91F

$$
WYZ014>020-022>026-101>103-252100-
CENTRAL WYOMING

CITY           SKY/WX    TMP DP  RH WIND       PRES   REMARKS
BIG PINEY      PTSUNNY   50  37  61 NE10G16   30.06F
PINEDALE       FAIR      45  39  81 NE7       30.08F
DUBOIS         MOCLDY    54  28  37 W20G26    30.00R
LANDER         FAIR      61  34  36 S5        29.91F
RIVERTON       CLOUDY    62  34  35 S6        29.93F
CASPER         FAIR      59  43  55 SW12      29.94F
DOUGLAS          N/A    N/A N/A N/A MISG      29.94R

$$
WYZ021-027>030-104>119-252100-
SOUTHERN WYOMING

CITY           SKY/WX    TMP DP  RH WIND       PRES   REMARKS
EVANSTON       PTSUNNY   51  34  52 S12       30.08S
KEMMERER         N/A     52  34  50 W10G17    30.08F
FORT BRIDGER   MOCLDY    52  37  58 W17       30.12R
ROCK SPRINGS   LGT RAIN  51  38  60 SW24G32   30.08R
DIXON          FAIR      63  25  24 SW21G26   30.07F
RAWLINS        FAIR      59  26  28 SW20G36   30.04F
SARATOGA       FAIR      59  28  31 W17G28    30.07F
LARAMIE        FAIR      60  24  25 W20G35    30.04S
CHEYENNE       PTSUNNY   61  34  36 W9        29.99F
TORRINGTON     FAIR      70  35  27 W15G22    29.91F
PINE BLUFFS    MOCLDY    68  34  28 S8G17     29.98S

$$






000
ASUS45 KCYS 251610
RWRWY

WYOMING REGIONAL WEATHER ROUNDUP
NATIONAL WEATHER SERVICE CHEYENNE WY
1000 AM MDT WED MAY 25 2016

NOTE:  "FAIR" INDICATES FEW OR NO CLOUDS BELOW 12,000 FEET
WITH NO SIGNIFICANT WEATHER AND/OR OBSTRUCTIONS TO VISIBILITY.

WYZ001-251700-
YELLOWSTONE NATIONAL PARK

CITY           SKY/WX    TMP DP  RH WIND       PRES   REMARKS
LK YELLOWSTONE   N/A     35  33  92 CALM      30.06R
W YELLOWSTONE  NOT AVBL

$$
WYZ002>013-054>058-071-098>099-251700-
NORTHERN WYOMING

CITY           SKY/WX    TMP DP  RH WIND       PRES   REMARKS
JACKSON        PTSUNNY   45  41  87 S12       30.04R
CODY           PTSUNNY   50  45  81 E5        29.94S
GREYBULL       CLOUDY    55  48  77 CALM      29.92S
WORLAND        FAIR      55  46  71 W5        29.93S
SHERIDAN       FAIR      57  45  64 E5        29.92S
BUFFALO        PTSUNNY   51  42  71 S8        29.95S
GILLETTE       CLOUDY    52  46  80 NW6       29.92S
HULETT         CLOUDY    50  45  81 W6        29.92S
NEWCASTLE      PTSUNNY   52  45  76 W8        29.93S

$$
WYZ014>020-022>026-101>103-251700-
CENTRAL WYOMING

CITY           SKY/WX    TMP DP  RH WIND       PRES   REMARKS
BIG PINEY      PTSUNNY   47  38  71 CALM      30.05S
PINEDALE       CLOUDY    43  36  75 S5        30.06S
DUBOIS         PTSUNNY   45  34  65 NW16G24   30.00S
LANDER         FAIR      55  40  56 E5        29.94S
RIVERTON       FAIR      55  42  61 VRB6      29.96R
CASPER         FAIR      60  34  37 SW22G30   29.94S
DOUGLAS          N/A    N/A N/A N/A MISG      29.94F

$$
WYZ021-027>030-104>119-251700-
SOUTHERN WYOMING

CITY           SKY/WX    TMP DP  RH WIND       PRES   REMARKS
EVANSTON       FAIR      47  36  65 W10       30.08R
KEMMERER         N/A     46  37  71 W16G23    30.08R
FORT BRIDGER   MOSUNNY   52  37  58 W16G22    30.10R
ROCK SPRINGS   FAIR      51  34  52 SW10G20   30.06R
DIXON          PTSUNNY   56  33  42 W18       30.09S
RAWLINS        FAIR      53  34  48 SW15G24   30.05R
SARATOGA       FAIR      54  32  43 W21       30.07R
LARAMIE        PTSUNNY   56  23  27 W18G35    30.03S
CHEYENNE       CLOUDY    59  28  30 W15       30.01S
TORRINGTON     FAIR      64  44  48 SW9       29.93F
PINE BLUFFS    FAIR      64  36  34 W12G18    29.99S

$$






000
ASUS45 KCYS 251510
RWRWY

WYOMING REGIONAL WEATHER ROUNDUP
NATIONAL WEATHER SERVICE CHEYENNE WY
900 AM MDT WED MAY 25 2016

NOTE:  "FAIR" INDICATES FEW OR NO CLOUDS BELOW 12,000 FEET
WITH NO SIGNIFICANT WEATHER AND/OR OBSTRUCTIONS TO VISIBILITY.

WYZ001-251600-
YELLOWSTONE NATIONAL PARK

CITY           SKY/WX    TMP DP  RH WIND       PRES   REMARKS
LK YELLOWSTONE   N/A     33  32  96 CALM      30.04S
W YELLOWSTONE  NOT AVBL

$$
WYZ002>013-054>058-071-098>099-251600-
NORTHERN WYOMING

CITY           SKY/WX    TMP DP  RH WIND       PRES   REMARKS
JACKSON        PTSUNNY   41  41 100 S7        30.03S
CODY           CLOUDY    48  45  87 NE6       29.94S
GREYBULL       CLOUDY    53  44  71 CALM      29.92R
WORLAND        FAIR      52  48  86 SW5       29.93R
SHERIDAN       CLOUDY    52  45  77 E5        29.92S
BUFFALO        LGT RAIN  49  42  77 SW3       29.95S
GILLETTE       CLOUDY    49  45  86 NW7       29.92S
HULETT         CLOUDY    50  46  87 W8        29.91S
NEWCASTLE      CLOUDY    50  46  87 W6        29.93R

$$
WYZ014>020-022>026-101>103-251600-
CENTRAL WYOMING

CITY           SKY/WX    TMP DP  RH WIND       PRES   REMARKS
BIG PINEY      PTSUNNY   43  38  82 SE5       30.05R
PINEDALE       PTSUNNY   41  37  87 E6        30.05F
DUBOIS         CLOUDY    39  34  81 N7G26     30.00R WCI  34
LANDER         FAIR      49  41  74 SE6       29.94S
RIVERTON       FAIR      53  39  59 CALM      29.95F
CASPER         FAIR      57  35  43 SW23G30   29.94S
DOUGLAS          N/A    N/A N/A N/A MISG      29.95R

$$
WYZ021-027>030-104>119-251600-
SOUTHERN WYOMING

CITY           SKY/WX    TMP DP  RH WIND       PRES   REMARKS
EVANSTON       FAIR      44  35  70 SW13      30.07R
KEMMERER         N/A     45  37  76 W9        30.07R
FORT BRIDGER   MOSUNNY   48  39  71 W13       30.09R
ROCK SPRINGS   FAIR      48  33  56 SW15      30.05S
DIXON          FAIR      54  35  49 SW16G24   30.09R
RAWLINS        FAIR      46  38  73 SW14      30.04F
SARATOGA       FAIR      52  34  50 SW13G20   30.06R
LARAMIE        FAIR      52  31  44 SW18      30.03F
CHEYENNE       FAIR      59  32  36 W22       30.01S
TORRINGTON     FAIR      57  44  62 CALM      29.94R
PINE BLUFFS    FAIR      57  41  54 S6        30.00S

$$






000
ASUS45 KCYS 251410
RWRWY

WYOMING REGIONAL WEATHER ROUNDUP
NATIONAL WEATHER SERVICE CHEYENNE WY
800 AM MDT WED MAY 25 2016

NOTE:  "FAIR" INDICATES FEW OR NO CLOUDS BELOW 12,000 FEET
WITH NO SIGNIFICANT WEATHER AND/OR OBSTRUCTIONS TO VISIBILITY.

WYZ001-251500-
YELLOWSTONE NATIONAL PARK

CITY           SKY/WX    TMP DP  RH WIND       PRES   REMARKS
LK YELLOWSTONE   N/A     33  31  92 CALM      30.04R
W YELLOWSTONE  NOT AVBL

$$
WYZ002>013-054>058-071-098>099-251500-
NORTHERN WYOMING

CITY           SKY/WX    TMP DP  RH WIND       PRES   REMARKS
JACKSON        SHOWER    39  37  93 S7        30.03R WCI  34
CODY           CLOUDY    46  43  87 CALM      29.94R
GREYBULL       CLOUDY    51  45  79 E3        29.91S
WORLAND        LGT RAIN  48  46  93 SE6       29.91S
SHERIDAN       CLOUDY    51  46  83 SE5       29.92R
BUFFALO        LGT RAIN  46  43  89 W3        29.95R FOG
GILLETTE       CLOUDY    48  46  93 NW6       29.92R
HULETT         PTSUNNY   52  48  87 SW8       29.91S
NEWCASTLE      CLOUDY    48  46  93 CALM      29.91S

$$
WYZ014>020-022>026-101>103-251500-
CENTRAL WYOMING

CITY           SKY/WX    TMP DP  RH WIND       PRES   REMARKS
BIG PINEY      CLOUDY    40  37  89 E3        30.04S
PINEDALE       CLOUDY    37  37 100 CALM      30.05S
DUBOIS         FAIR      43  34  70 N10G16    29.97F
LANDER         PTSUNNY   46  39  76 E5        29.94R
RIVERTON       PTSUNNY   48  41  76 SW6       29.96R
CASPER         FAIR      51  36  56 SW22G29   29.94R
DOUGLAS          N/A    N/A N/A N/A MISG      29.94S

$$
WYZ021-027>030-104>119-251500-
SOUTHERN WYOMING

CITY           SKY/WX    TMP DP  RH WIND       PRES   REMARKS
EVANSTON       PTSUNNY   39  33  79 SW6       30.06R WCI  35
KEMMERER         N/A     41  36  81 S3        30.06R
FORT BRIDGER   MOSUNNY   43  41  93 SW8       30.08S
ROCK SPRINGS   FAIR      43  36  76 SW8       30.05R
DIXON          FAIR      50  37  61 S14       30.07F
RAWLINS        PTSUNNY   43  35  73 SW13      30.05R
SARATOGA       FAIR      46  37  71 SE7       30.06R
LARAMIE        FAIR      47  33  58 SW17G24   30.04R
CHEYENNE       FAIR      54  37  52 SW10      30.01S
TORRINGTON     FAIR      50  46  86 CALM      29.93R
PINE BLUFFS    FAIR      52  45  76 SE3       29.99F

$$






000
ASUS45 KCYS 251210
RWRWY

WYOMING REGIONAL WEATHER ROUNDUP
NATIONAL WEATHER SERVICE CHEYENNE WY
600 AM MDT WED MAY 25 2016

NOTE:  "FAIR" INDICATES FEW OR NO CLOUDS BELOW 12,000 FEET
WITH NO SIGNIFICANT WEATHER AND/OR OBSTRUCTIONS TO VISIBILITY.

WYZ001-251300-
YELLOWSTONE NATIONAL PARK

CITY           SKY/WX    TMP DP  RH WIND       PRES   REMARKS
LK YELLOWSTONE   N/A     33  31  92 CALM      30.02R
6HR MIN TEMP:  32; 6HR MAX TEMP:  34; 6HR PCP:  0.25;

W YELLOWSTONE  NOT AVBL

$$
WYZ002>013-054>058-071-098>099-251300-
NORTHERN WYOMING

CITY           SKY/WX    TMP DP  RH WIND       PRES   REMARKS
JACKSON        CLOUDY    39  39 100 CALM      30.00R
CODY           CLOUDY    45  43  93 CALM      29.92S
GREYBULL       CLOUDY    51  49  92 E6        29.90R
6HR MIN TEMP:  51; 6HR MAX TEMP:  53; 6HR PCP:  0.02;

WORLAND        CLOUDY    48  45  89 E3        29.90S
6HR MIN TEMP:  47; 6HR MAX TEMP:  49; 6HR PCP: TRACE;

SHERIDAN       CLOUDY    48  45  89 CALM      29.91S
6HR MIN TEMP:  48; 6HR MAX TEMP:  50; 6HR PCP:  0.01;

BUFFALO        CLOUDY    46  42  86 N5        29.94R
6HR MIN TEMP:  45; 6HR MAX TEMP:  47;

GILLETTE         N/A     48  46  93 NW5       29.89S
6HR MIN TEMP:  42; 6HR MAX TEMP:  48;

HULETT         CLOUDY    46  46 100 W5        29.90R
NEWCASTLE      CLOUDY    46  46 100 SE6       29.91R

$$
WYZ014>020-022>026-101>103-251300-
CENTRAL WYOMING

CITY           SKY/WX    TMP DP  RH WIND       PRES   REMARKS
BIG PINEY      CLOUDY    39  37  92 CALM      30.03R
6HR MIN TEMP:  35; 6HR MAX TEMP:  39; 6HR PCP:  0.01;

PINEDALE       DRIZZLE   36  36 100 SE3       30.04R
DUBOIS         CLOUDY    37  32  81 NW9       29.97R WCI  31
LANDER         FAIR      41  33  73 SW9       29.92S
6HR MIN TEMP:  41; 6HR MAX TEMP:  48;

RIVERTON       MOCLDY    40  37  89 N3        29.94R
6HR MIN TEMP:  40; 6HR MAX TEMP:  48;

CASPER         FAIR      42  34  73 W7        29.94R
6HR MIN TEMP:  35; 6HR MAX TEMP:  48;

DOUGLAS          N/A    N/A N/A N/A MISG      29.94R

$$
WYZ021-027>030-104>119-251300-
SOUTHERN WYOMING

CITY           SKY/WX    TMP DP  RH WIND       PRES   REMARKS
EVANSTON       MOCLDY    37  32  82 SW9       30.04R WCI  30
6HR MIN TEMP:  34; 6HR MAX TEMP:  39;

KEMMERER         N/A     34  34 100 CALM      30.03S
FORT BRIDGER   MOSUNNY   39  37  93 SW12      30.06S WCI  32
ROCK SPRINGS   CLOUDY    37  34  89 NE3       30.03R
6HR MIN TEMP:  37; 6HR MAX TEMP:  40;

DIXON          FAIR      38  35  87 CALM      30.06S
RAWLINS        FAIR      39  32  76 SW10      30.01S WCI  32
6HR MIN TEMP:  39; 6HR MAX TEMP:  45;

SARATOGA       FAIR      36  36 100 MISG      30.03S
LARAMIE        FAIR      36  32  85 SW7       30.02S WCI  30
6HR MIN TEMP:  32; 6HR MAX TEMP:  44;

CHEYENNE       FAIR      44  34  67 W12       29.99R
6HR MIN TEMP:  43; 6HR MAX TEMP:  53;

TORRINGTON     FAIR      40  39  97 NE3       29.91F
6HR MIN TEMP:  39; 6HR MAX TEMP:  53;

PINE BLUFFS    FAIR      37  37 100 W5        29.98R WCI  34

$$






000
ASUS45 KCYS 251110
RWRWY

WYOMING REGIONAL WEATHER ROUNDUP
NATIONAL WEATHER SERVICE CHEYENNE WY
500 AM MDT WED MAY 25 2016

NOTE:  "FAIR" INDICATES FEW OR NO CLOUDS BELOW 12,000 FEET
WITH NO SIGNIFICANT WEATHER AND/OR OBSTRUCTIONS TO VISIBILITY.

WYZ001-251200-
YELLOWSTONE NATIONAL PARK

CITY           SKY/WX    TMP DP  RH WIND       PRES   REMARKS
LK YELLOWSTONE   N/A     33  31  92 CALM      30.01S
W YELLOWSTONE  NOT AVBL

$$
WYZ002>013-054>058-071-098>099-251200-
NORTHERN WYOMING

CITY           SKY/WX    TMP DP  RH WIND       PRES   REMARKS
JACKSON        CLOUDY    39  39 100 SW3       29.99R
CODY           CLOUDY    45  43  93 SE6       29.92R
GREYBULL       CLOUDY    51  49  92 CALM      29.89S
WORLAND        CLOUDY    47  44  90 S8        29.90R
SHERIDAN       CLOUDY    48  45  89 CALM      29.91S
BUFFALO        CLOUDY    46  42  86 N9        29.92S
GILLETTE       CLOUDY    47  46  97 N6        29.89R
HULETT         CLOUDY    48  46  93 W9        29.88R
NEWCASTLE      CLOUDY    46  46 100 SE6       29.89R

$$
WYZ014>020-022>026-101>103-251200-
CENTRAL WYOMING

CITY           SKY/WX    TMP DP  RH WIND       PRES   REMARKS
BIG PINEY      CLOUDY    38  36  92 CALM      30.02S
PINEDALE       DRIZZLE   36  36 100 CALM      30.03S
DUBOIS         CLOUDY    39  32  75 N9        29.96R WCI  33
LANDER         FAIR      41  35  79 CALM      29.92R
RIVERTON       MOCLDY    43  39  86 CALM      29.93R
CASPER         FAIR      39  34  82 NW12      29.93R WCI  32
DOUGLAS          N/A    N/A N/A N/A MISG      29.92R

$$
WYZ021-027>030-104>119-251200-
SOUTHERN WYOMING

CITY           SKY/WX    TMP DP  RH WIND       PRES   REMARKS
EVANSTON       CLOUDY    37  32  82 S8        30.03S WCI  31
KEMMERER         N/A     34  32  93 CALM      30.03S
FORT BRIDGER   CLOUDY    39  37  93 W7        30.06S WCI  34
ROCK SPRINGS   CLOUDY    38  34  85 NW3       30.02S
DIXON          FAIR      41  37  86 N7        30.05S
RAWLINS        FAIR      40  33  76 SW10      30.01R WCI  33
SARATOGA       FAIR      37  37 100 SE12G18   30.02S WCI  30
LARAMIE        MOCLDY    35  32  88 SW8       30.02S WCI  29
CHEYENNE       FAIR      46  34  62 NW10      29.97R
TORRINGTON     FAIR      42  40  92 W5        29.92R
PINE BLUFFS    FAIR      36  36 100 W5        29.96R WCI  32

$$






000
ASUS45 KCYS 250910
RWRWY

WYOMING REGIONAL WEATHER ROUNDUP
NATIONAL WEATHER SERVICE CHEYENNE WY
300 AM MDT WED MAY 25 2016

NOTE:  "FAIR" INDICATES FEW OR NO CLOUDS BELOW 12,000 FEET
WITH NO SIGNIFICANT WEATHER AND/OR OBSTRUCTIONS TO VISIBILITY.

WYZ001-251000-
YELLOWSTONE NATIONAL PARK

CITY           SKY/WX    TMP DP  RH WIND       PRES   REMARKS
LK YELLOWSTONE   N/A     33  31  92 CALM      30.01S
W YELLOWSTONE  NOT AVBL

$$
WYZ002>013-054>058-071-098>099-251000-
NORTHERN WYOMING

CITY           SKY/WX    TMP DP  RH WIND       PRES   REMARKS
JACKSON        CLOUDY    39  37  93 S5        29.98S
CODY           CLOUDY    46  43  87 CALM      29.91S
GREYBULL       LGT RAIN  51  49  92 CALM      29.89R
WORLAND        CLOUDY    49  46  90 SE3       29.89S
SHERIDAN       CLOUDY    48  45  89 NW8       29.91S
BUFFALO        FAIR      46  41  82 NW18G28   29.90S
GILLETTE       FAIR      45  44  97 W7        29.88R
HULETT         CLOUDY    50  46  87 CALM      29.87S
NEWCASTLE      FAIR      45  45 100 SE5       29.87R

$$
WYZ014>020-022>026-101>103-251000-
CENTRAL WYOMING

CITY           SKY/WX    TMP DP  RH WIND       PRES   REMARKS
BIG PINEY      CLOUDY    38  36  92 CALM      30.01R
PINEDALE       CLOUDY    36  36 100 CALM      30.02R
DUBOIS         CLOUDY    39  30  70 NW8       29.95S WCI  34
LANDER         FAIR      42  35  76 CALM      29.90F
RIVERTON       FAIR      41  38  89 N6        29.92S
CASPER         FAIR      37  34  89 W6        29.91S WCI  32
DOUGLAS          N/A    N/A N/A N/A MISG      29.91R

$$
WYZ021-027>030-104>119-251000-
SOUTHERN WYOMING

CITY           SKY/WX    TMP DP  RH WIND       PRES   REMARKS
EVANSTON       FAIR      36  32  85 SW8       30.02S WCI  30
KEMMERER         N/A     34  34 100 N5        30.03R WCI  30
FORT BRIDGER   MOSUNNY   37  36  93 W7        30.05R WCI  32
ROCK SPRINGS   MOCLDY    40  33  76 CALM      30.01F
DIXON          CLOUDY    44  40  86 NE6       30.07F
RAWLINS        MOCLDY    44  34  67 SW21G31   30.00F
SARATOGA       DRIZZLE   41  37  87 SW9       30.06R
LARAMIE        FAIR      37  31  78 S3        30.01R
CHEYENNE       FAIR      50  34  54 NW12      29.94S
TORRINGTON     FAIR      44  42  93 E7        29.88F
PINE BLUFFS    FAIR      39  37  93 W3        29.92R

$$






000
ASUS45 KCYS 250710
RWRWY

WYOMING REGIONAL WEATHER ROUNDUP
NATIONAL WEATHER SERVICE CHEYENNE WY
100 AM MDT WED MAY 25 2016

NOTE:  "FAIR" INDICATES FEW OR NO CLOUDS BELOW 12,000 FEET
WITH NO SIGNIFICANT WEATHER AND/OR OBSTRUCTIONS TO VISIBILITY.

WYZ001-250800-
YELLOWSTONE NATIONAL PARK

CITY           SKY/WX    TMP DP  RH WIND       PRES   REMARKS
LK YELLOWSTONE   N/A     33  31  92 CALM      30.02F
W YELLOWSTONE  NOT AVBL

$$
WYZ002>013-054>058-071-098>099-250800-
NORTHERN WYOMING

CITY           SKY/WX    TMP DP  RH WIND       PRES   REMARKS
JACKSON        CLOUDY    39  39 100 CALM      29.99S
CODY           MOCLDY    46  43  87 SE7       29.91F
GREYBULL       CLOUDY    52  48  86 W7        29.89R
WORLAND        CLOUDY    48  46  93 S5        29.91S
SHERIDAN       LGT RAIN  49  45  86 NW13      29.91R
BUFFALO        CLOUDY    47  43  86 N14G22    29.92S
GILLETTE       MOCLDY    44  43  96 CALM      29.89R
HULETT         FAIR      48  46  93 SE7       29.87R
NEWCASTLE      FAIR      48  43  81 SE3       29.88R

$$
WYZ014>020-022>026-101>103-250800-
CENTRAL WYOMING

CITY           SKY/WX    TMP DP  RH WIND       PRES   REMARKS
BIG PINEY      MOCLDY    35  33  92 N6        30.01S WCI  30
PINEDALE       PTSUNNY   36  36 100 NW3       30.01S
DUBOIS         PTSUNNY   39  30  70 NW14      29.95F WCI  31
LANDER         FAIR      44  38  79 CALM      29.90F
RIVERTON       FAIR      42  38  85 NE6       29.92F
CASPER         FAIR      43  37  79 CALM      29.91F
DOUGLAS        FAIR      45  39  79 S6        29.90F

$$
WYZ021-027>030-104>119-250800-
SOUTHERN WYOMING

CITY           SKY/WX    TMP DP  RH WIND       PRES   REMARKS
EVANSTON       CLOUDY    38  34  85 SW8       30.02R WCI  32
KEMMERER         N/A     36  34  93 CALM      30.02S
FORT BRIDGER   SUNNY     37  37 100 MISG      30.04S
ROCK SPRINGS   FAIR      39  35  86 S6        30.02R WCI  35
DIXON          LGT RAIN  47  37  67 N9        30.06S
RAWLINS        FAIR      43  36  76 SW9       30.02R
SARATOGA       CLOUDY    45  36  70 SW5       30.04R
LARAMIE        FAIR      39  32  76 NE6       30.00S WCI  35
CHEYENNE       FAIR      51  34  52 NW14      29.95R
TORRINGTON     FAIR      50  44  80 N6        29.90S
PINE BLUFFS    FAIR      45  43  93 CALM      29.92R

$$






000
ASUS45 KCYS 250010
RWRWY

WYOMING REGIONAL WEATHER ROUNDUP
NATIONAL WEATHER SERVICE CHEYENNE WY
600 PM MDT TUE MAY 24 2016

NOTE:  "FAIR" INDICATES FEW OR NO CLOUDS BELOW 12,000 FEET
WITH NO SIGNIFICANT WEATHER AND/OR OBSTRUCTIONS TO VISIBILITY.

WYZ001-250100-
YELLOWSTONE NATIONAL PARK

CITY           SKY/WX    TMP DP  RH WIND       PRES   REMARKS
LK YELLOWSTONE   N/A     38  35  89 CALM      29.99R
6HR MIN TEMP:  38; 6HR MAX TEMP:  52; 6HR PCP:  0.05;

W YELLOWSTONE  NOT AVBL

$$
WYZ002>013-054>058-071-098>099-250100-
NORTHERN WYOMING

CITY           SKY/WX    TMP DP  RH WIND       PRES   REMARKS
JACKSON        PTSUNNY   43  39  87 SE5       29.94F
CODY           CLOUDY    52  45  76 N9        29.89R
GREYBULL       FAIR      65  33  30 N26G36    29.75F
6HR MIN TEMP:  64; 6HR MAX TEMP:  74;

WORLAND        CLOUDY    62  39  42 NE13G21   29.76R
6HR MIN TEMP:  62; 6HR MAX TEMP:  74;

SHERIDAN       PTSUNNY   63  40  42 S20G29    29.79F
6HR MIN TEMP:  63; 6HR MAX TEMP:  71;

BUFFALO        PTSUNNY   58  39  49 W18G36    29.83F
6HR MIN TEMP:  58; 6HR MAX TEMP:  67;

GILLETTE       TSTM      53  48  83 S13G43    29.81R
6HR MIN TEMP:  63; 6HR MAX TEMP:  72;

HULETT         LGT RAIN  59  45  58 SE13G21   29.84R
NEWCASTLE      FAIR      54  45  71 E17G23    29.85F

$$
WYZ014>020-022>026-101>103-250100-
CENTRAL WYOMING

CITY           SKY/WX    TMP DP  RH WIND       PRES   REMARKS
BIG PINEY      PTSUNNY   47  36  65 W6        29.96R
6HR MIN TEMP:  40; 6HR MAX TEMP:  59; 6HR PCP:  0.12;

PINEDALE       FAIR      43  36  75 NE5       29.97S
DUBOIS         CLOUDY    43  32  65 NW13      29.94S
LANDER         FAIR      53  38  56 N7        29.84R
6HR MIN TEMP:  48; 6HR MAX TEMP:  62; 6HR PCP:  0.01;

RIVERTON       FAIR      56  39  53 W20       29.85R
6HR MIN TEMP:  51; 6HR MAX TEMP:  69; 6HR PCP:  0.03;

CASPER         FAIR      70  23  17 SW15G29   29.75F
6HR MIN TEMP:  61; 6HR MAX TEMP:  71; 6HR PCP: TRACE;

DOUGLAS        FAIR      66  45  46 E6        29.79F
6HR MIN TEMP:  57; 6HR MAX TEMP:  69; 6HR PCP:  0.07;


$$
WYZ021-027>030-104>119-250100-
SOUTHERN WYOMING

CITY           SKY/WX    TMP DP  RH WIND       PRES   REMARKS
EVANSTON       FAIR      54  31  41 W23G30    29.92S
6HR MIN TEMP:  44; 6HR MAX TEMP:  57; 6HR PCP:  0.01;

KEMMERER         N/A     45  34  65 NW15G21   29.95S
FORT BRIDGER   TSTM      50  37  62 W17G28    29.98R
ROCK SPRINGS   FAIR      56  32  40 W13       29.91F
6HR MIN TEMP:  47; 6HR MAX TEMP:  66; 6HR PCP: TRACE;

DIXON          MOCLDY    64  25  22 SW9       29.89S
RAWLINS        PTSUNNY   68  19  15 SW30G40   29.85F
6HR MIN TEMP:  59; 6HR MAX TEMP:  69;

SARATOGA       FAIR      57  30  35 SW7G18    29.90S
LARAMIE        PTSUNNY   63  28  26 S23       29.86F
6HR MIN TEMP:  57; 6HR MAX TEMP:  64;

CHEYENNE       CLOUDY    56  44  64 SE17G25   29.90R
6HR MIN TEMP:  56; 6HR MAX TEMP:  68; 6HR PCP:  0.03;

TORRINGTON     FAIR      74  45  35 S32G43    29.75F
6HR MIN TEMP:  69; 6HR MAX TEMP:  77;

PINE BLUFFS    FAIR      57  48  72 E15       29.89R

$$






000
ASUS45 KCYS 242310
RWRWY

WYOMING REGIONAL WEATHER ROUNDUP
NATIONAL WEATHER SERVICE CHEYENNE WY
500 PM MDT TUE MAY 24 2016

NOTE:  "FAIR" INDICATES FEW OR NO CLOUDS BELOW 12,000 FEET
WITH NO SIGNIFICANT WEATHER AND/OR OBSTRUCTIONS TO VISIBILITY.

WYZ001-250000-
YELLOWSTONE NATIONAL PARK

CITY           SKY/WX    TMP DP  RH WIND       PRES   REMARKS
LK YELLOWSTONE   N/A     44  33  65 MISG      29.97R
W YELLOWSTONE  NOT AVBL

$$
WYZ002>013-054>058-071-098>099-250000-
NORTHERN WYOMING

CITY           SKY/WX    TMP DP  RH WIND       PRES   REMARKS
JACKSON        LGT RAIN  43  39  87 S17       29.96R
CODY           FAIR      54  43  66 N8        29.87F
GREYBULL       CLOUDY    67  34  29 NW35G43   29.76R
WORLAND        FAIR      71  32  23 VRB3      29.74S
SHERIDAN       FAIR      69  39  33 VRB7      29.80F
BUFFALO        CLOUDY    58  39  49 W17       29.85F
GILLETTE       FAIR      70  34  26 E6        29.79F
HULETT         CLOUDY    68  36  30 E7        29.83F
NEWCASTLE      RAIN      59  43  55 S22G31    29.90R

$$
WYZ014>020-022>026-101>103-250000-
CENTRAL WYOMING

CITY           SKY/WX    TMP DP  RH WIND       PRES   REMARKS
BIG PINEY      FAIR      47  38  71 VRB6      29.95R
PINEDALE       MOCLDY    36  36 100 NE21G26   29.96F WCI  24
DUBOIS         CLOUDY    43  34  70 N13G18    29.92F
LANDER         FAIR      52  40  63 N16       29.81F
RIVERTON       TSTM      51  40  65 W31G51    29.84R
CASPER         FAIR      70  31  23 S13       29.78F
DOUGLAS        FAIR      66  44  45 SE14      29.82S

$$
WYZ021-027>030-104>119-250000-
SOUTHERN WYOMING

CITY           SKY/WX    TMP DP  RH WIND       PRES   REMARKS
EVANSTON       FAIR      52  35  52 NW17G24   29.92F
KEMMERER         N/A     43  34  70 W21G31    29.96R
FORT BRIDGER   FAIR      57  37  47 NW22G30   29.95F
ROCK SPRINGS   FAIR      54  34  46 W21G28    29.92F
DIXON          FAIR      68  23  18 SW17G29   29.89S
RAWLINS        PTSUNNY   64  20  18 SW21G29   29.86F
SARATOGA       MOCLDY    61  23  23 S14G24    29.91R
LARAMIE        FAIR      61  38  42 SE24G32   29.89S
CHEYENNE       FAIR      63  43  48 SE21G28   29.89F
TORRINGTON     FAIR      76  44  32 S30G40    29.77F
PINE BLUFFS    TSTM      54  46  76 S20G29    29.95R

$$






000
ASUS45 KCYS 241810
RWRWY

WYOMING REGIONAL WEATHER ROUNDUP
NATIONAL WEATHER SERVICE CHEYENNE WY
1200 PM MDT TUE MAY 24 2016

NOTE:  "FAIR" INDICATES FEW OR NO CLOUDS BELOW 12,000 FEET
WITH NO SIGNIFICANT WEATHER AND/OR OBSTRUCTIONS TO VISIBILITY.

WYZ001-241900-
YELLOWSTONE NATIONAL PARK

CITY           SKY/WX    TMP DP  RH WIND       PRES   REMARKS
LK YELLOWSTONE   N/A     47  28  47 MISG      29.96S
6HR MIN TEMP:  28; 6HR MAX TEMP:  47;

W YELLOWSTONE  NOT AVBL

$$
WYZ002>013-054>058-071-098>099-241900-
NORTHERN WYOMING

CITY           SKY/WX    TMP DP  RH WIND       PRES   REMARKS
JACKSON        MOSUNNY   50  30  46 CALM      29.92F
CODY           FAIR      55  39  54 N3        29.88F
GREYBULL       FAIR      64  30  27 MISG      29.85F
6HR MIN TEMP:  38; 6HR MAX TEMP:  65;

WORLAND        FAIR      63  36  36 VRB5      29.85F
6HR MIN TEMP:  35; 6HR MAX TEMP:  63;

SHERIDAN       FAIR      63  40  42 SE6       29.88F
6HR MIN TEMP:  35; 6HR MAX TEMP:  64;

BUFFALO          N/A     62  38  40 E14G21    29.91F
GILLETTE       FAIR      65  36  34 S6        29.90F
6HR MIN TEMP:  32; 6HR MAX TEMP:  65;

HULETT         FAIR      64  37  36 CALM      29.91F
NEWCASTLE      FAIR      64  30  27 S8        29.93S

$$
WYZ014>020-022>026-101>103-241900-
CENTRAL WYOMING

CITY           SKY/WX    TMP DP  RH WIND       PRES   REMARKS
BIG PINEY      PTSUNNY   53  30  41 S5        29.94F
6HR MIN TEMP:  28; 6HR MAX TEMP:  53;

PINEDALE       MOCLDY    50  32  50 S6        29.97S
DUBOIS         MOCLDY    54  25  32 E7        29.91F
LANDER         PTSUNNY   59  33  37 VRB3      29.86F
6HR MIN TEMP:  38; 6HR MAX TEMP:  60;

RIVERTON       FAIR      61  31  32 VRB3      29.88F
6HR MIN TEMP:  38; 6HR MAX TEMP:  63;

CASPER         FAIR      61  33  35 NE5       29.90F
6HR MIN TEMP:  33; 6HR MAX TEMP:  61;

DOUGLAS        FAIR      67  39  35 SE16G24   29.91F
6HR MIN TEMP:  35; 6HR MAX TEMP:  67;


$$
WYZ021-027>030-104>119-241900-
SOUTHERN WYOMING

CITY           SKY/WX    TMP DP  RH WIND       PRES   REMARKS
EVANSTON       FAIR      53  35  50 E13       29.91F
6HR MIN TEMP:  39; 6HR MAX TEMP:  54; 6HR PCP: TRACE;

KEMMERER         N/A     54  30  40 E9G16     29.93F
FORT BRIDGER   RAIN      45  39  81 SW29G38   29.98R
ROCK SPRINGS   FAIR      60  29  30 E9        29.90F
6HR MIN TEMP:  40; 6HR MAX TEMP:  60;

DIXON          FAIR      67  25  21 SW17G25   29.95S
RAWLINS        FAIR      60  30  32 E7        29.93F
6HR MIN TEMP:  33; 6HR MAX TEMP:  61;

SARATOGA       MOCLDY    63  32  31 NW6       29.93S
LARAMIE        FAIR      59  40  49 SE31G40   29.94F
6HR MIN TEMP:  30; 6HR MAX TEMP:  61;

CHEYENNE       FAIR      62  44  51 S22G30    29.98S
6HR MIN TEMP:  40; 6HR MAX TEMP:  62;

TORRINGTON     FAIR      70  46  42 SE13G21   29.90F
6HR MIN TEMP:  40; 6HR MAX TEMP:  70;

PINE BLUFFS    FAIR      68  43  40 S21G26    29.96F

$$






    US Dept of Commerce
    National Oceanic and Atmospheric Administration
    National Weather Service
    1325 East West Highway
    Silver Spring, MD 20910
    Page Author: NWS Internet Services Team
Disclaimer
Information Quality
Credits
Glossary
Privacy Policy
Freedom of Information Act (FOIA)
About Us
Career Opportunities